N8IR-19 Weather Reports


Display with metric or nautical units.
time (UTC)temp
F
wind
direction
speed
MPH
gust
MPH
rain 1hr
in
rain 24hr
in
rain mn
in
humidity
%
barometer
mb
20260506173419 53 23 8.0 10.0 0.00 1.20 0.21 49 993.0
20260506172918 53 0 9.0 11.0 0.00 1.20 0.21 50 993.0
20260506172421 53 0 9.0 10.0 0.00 1.20 0.21 48 993.2
20260506171919 53 0 9.0 11.0 0.00 1.20 0.21 50 993.0
20260506171418 53 0 10.0 11.0 0.00 1.20 0.21 49 993.1
20260506170921 53 0 9.0 12.0 0.00 1.20 0.21 49 993.1
20260506170421 53 0 8.0 11.0 0.00 1.20 0.21 50 993.1
20260506165940 53 0 8.0 10.0 0.00 1.20 0.21 49 993.0
20260506165418 53 0 9.0 11.0 0.00 1.20 0.21 50 993.0
20260506164918 52 0 12.0 13.0 0.00 1.20 0.21 51 993.1
20260506164418 52 0 9.0 11.0 0.00 1.20 0.21 51 993.0
20260506163918 52 0 11.0 13.0 0.00 1.20 0.21 51 993.0
20260506163437 52 0 9.0 11.0 0.00 1.20 0.21 51 993.1
20260506162917 52 0 11.0 12.0 0.00 1.20 0.21 50 993.1
20260506162438 52 0 10.0 13.0 0.00 1.20 0.21 49 993.1
20260506161917 52 0 9.0 12.0 0.00 1.20 0.21 50 992.9
20260506161418 52 0 9.0 11.0 0.00 1.20 0.21 51 992.9
20260506160938 52 0 11.0 14.0 0.00 1.20 0.21 52 992.7
20260506160418 52 0 9.0 13.0 0.00 1.20 0.21 52 992.7
20260506155918 52 0 9.0 12.0 0.00 1.20 0.21 51 992.6
20260506155420 52 338 8.0 11.0 0.00 1.20 0.21 52 992.5
20260506154938 52 0 9.0 11.0 0.00 1.20 0.21 51 992.7
20260506154417 52 0 8.0 11.0 0.00 1.20 0.21 51 992.6
20260506153918 52 0 7.0 10.0 0.00 1.20 0.21 51 992.5
20260506153438 52 0 7.0 9.0 0.00 1.20 0.21 51 992.6
20260506152920 52 338 7.0 8.0 0.00 1.20 0.21 52 992.5
20260506152419 52 338 7.0 9.0 0.00 1.20 0.21 52 992.5
20260506152001 52 338 7.0 11.0 0.00 1.20 0.21 52 992.3
20260506151419 52 0 8.0 10.0 0.00 1.20 0.21 52 992.2
20260506150919 52 338 8.0 10.0 0.00 1.20 0.21 52 992.1
20260506150418 52 0 12.0 18.0 0.00 1.20 0.21 51 992.1
20260506145940 52 0 11.0 16.0 0.00 1.20 0.21 51 991.9
20260506145419 52 338 7.0 10.0 0.00 1.20 0.21 51 991.9
20260506144918 52 0 11.0 14.0 0.00 1.20 0.21 52 991.8
20260506144419 52 0 8.0 12.0 0.00 1.20 0.21 51 991.8
20260506143940 52 338 9.0 12.0 0.00 1.20 0.21 51 991.8
20260506143420 52 0 9.0 12.0 0.00 1.20 0.21 51 991.6
20260506142918 52 0 10.0 12.0 0.00 1.20 0.21 49 991.8
20260506142417 52 0 8.0 11.0 0.00 1.20 0.21 50 991.8
20260506141939 52 0 8.0 10.0 0.00 1.20 0.21 50 991.7
20260506141458 52 0 7.0 10.0 0.00 1.20 0.21 49 991.7
20260506140920 52 338 4.0 8.0 0.00 1.20 0.21 49 991.7
20260506140417 51 338 5.0 9.0 0.00 1.20 0.21 49 991.8
20260506135917 51 338 7.0 9.0 0.00 1.20 0.21 48 991.5
20260506135418 51 293 5.0 8.0 0.00 1.20 0.21 47 991.6
20260506134917 51 270 6.0 11.0 0.00 1.20 0.21 48 991.4
20260506134420 50 270 5.0 7.0 0.00 1.20 0.21 49 991.3
20260506133918 50 270 7.0 9.0 0.00 1.20 0.21 48 991.3
20260506133421 50 270 5.0 7.0 0.00 1.20 0.21 48 991.2
20260506132920 49 270 5.0 7.0 0.00 1.20 0.21 48 991.3
20260506132420 49 248 5.0 7.0 0.00 1.20 0.21 48 991.3
20260506131938 49 248 6.0 7.0 0.00 1.20 0.21 48 991.1
20260506130920 49 270 5.0 7.0 0.00 1.20 0.21 48 991.1
20260506130420 49 270 8.0 9.0 0.00 1.20 0.21 48 991.1
20260506125920 49 270 7.0 9.0 0.00 1.20 0.21 49 990.9
20260506125421 48 270 7.0 10.0 0.00 1.20 0.21 48 990.7
20260506124920 48 248 7.0 8.0 0.00 1.20 0.21 49 990.6
20260506124420 48 270 6.0 8.0 0.00 1.20 0.21 49 990.6
20260506123917 48 270 6.0 7.0 0.00 1.20 0.21 50 990.5
20260506123420 48 270 6.0 8.0 0.00 1.20 0.21 50 990.6
20260506122920 48 270 7.0 9.0 0.00 1.20 0.21 51 990.5
20260506122420 47 270 5.0 7.0 0.00 1.20 0.21 51 990.3
20260506121918 47 248 4.0 5.0 0.00 1.20 0.21 51 990.2
20260506121420 47 270 4.0 6.0 0.00 1.20 0.21 51 990.4
20260506120918 47 293 3.0 4.0 0.00 1.20 0.21 51 990.1
20260506120420 47 270 4.0 7.0 0.00 1.20 0.21 51 990.1
20260506115920 47 270 4.0 4.0 0.00 1.20 0.21 51 990.1
20260506115419 47 270 4.0 6.0 0.00 1.20 0.21 51 990.1
20260506114918 47 248 4.0 5.0 0.00 1.20 0.21 51 990.4
20260506114417 47 248 4.0 5.0 0.00 1.20 0.21 51 990.5
20260506113917 47 248 3.0 4.0 0.00 1.20 0.21 51 990.3
20260506113418 47 248 4.0 5.0 0.00 1.20 0.21 51 990.2
20260506112917 47 248 3.0 4.0 0.00 1.20 0.21 51 990.3
20260506112417 47 248 4.0 5.0 0.00 1.20 0.21 51 990.2
20260506111937 47 270 3.0 6.0 0.00 1.20 0.21 50 989.9
20260506111417 47 270 3.0 4.0 0.00 1.20 0.21 50 989.8
20260506110917 47 293 2.0 3.0 0.00 1.20 0.21 50 989.5
20260506110417 47 0.0 1.0 0.00 1.20 0.21 49 989.4
20260506105917 47 315 3.0 3.0 0.00 1.20 0.21 49 989.3
20260506105417 46 338 2.0 3.0 0.00 1.20 0.21 48 989.3
20260506104917 46 338 2.0 4.0 0.00 1.20 0.21 48 989.1
20260506104417 46 293 3.0 4.0 0.00 1.20 0.21 48 988.9
20260506103918 46 315 2.0 3.0 0.00 1.20 0.21 48 988.9
20260506103458 46 315 1.0 3.0 0.00 1.20 0.21 49 988.9
20260506102917 46 0.0 2.0 0.00 1.20 0.21 49 988.9
20260506102417 46 315 1.0 2.0 0.00 1.20 0.21 49 988.7
20260506101938 46 0.0 1.0 0.00 1.20 0.21 49 988.7
20260506101417 46 315 2.0 3.0 0.00 1.20 0.21 49 989.0
20260506100937 46 315 2.0 3.0 0.00 1.20 0.21 49 989.0
20260506100417 46 315 1.0 3.0 0.01 1.20 0.21 48 988.6
20260506095938 46 293 1.0 2.0 0.01 1.20 0.21 48 988.7
20260506095417 46 293 1.0 2.0 0.01 1.20 0.21 49 989.0
20260506094918 46 293 2.0 3.0 0.01 1.20 0.21 48 989.3
20260506094437 46 315 2.0 4.0 0.01 1.20 0.21 48 989.3
20260506093917 46 315 4.0 9.0 0.01 1.20 0.21 48 989.0
20260506093417 46 315 5.0 8.0 0.01 1.20 0.21 48 989.0
20260506092917 46 338 4.0 5.0 0.01 1.20 0.21 48 988.8
20260506092418 46 315 5.0 8.0 0.01 1.20 0.21 48 988.8
20260506091918 46 338 2.0 6.0 0.01 1.20 0.21 48 988.8
20260506091417 46 338 2.0 3.0 0.01 1.20 0.21 48 988.7
20260506090917 46 315 1.0 2.0 0.01 1.20 0.21 47 988.7
20260506090417 46 315 1.0 2.0 0.00 1.19 0.20 47 989.0
20260506085917 46 338 2.0 3.0 0.01 1.19 0.20 47 989.1
20260506085417 46 338 2.0 3.0 0.01 1.19 0.20 47 989.2
20260506084937 46 338 3.0 4.0 0.01 1.19 0.20 47 989.2
20260506084417 46 315 2.0 3.0 0.02 1.19 0.20 48 989.1
20260506083917 46 293 1.0 2.0 0.02 1.19 0.20 48 989.1
20260506083417 46 0.0 2.0 0.03 1.19 0.20 48 988.9
20260506082917 46 338 1.0 4.0 0.03 1.19 0.20 48 988.8
20260506082417 46 338 1.0 2.0 0.03 1.19 0.20 48 988.7
20260506081918 46 338 1.0 2.0 0.03 1.19 0.20 48 988.6
20260506081417 46 338 1.0 3.0 0.03 1.19 0.20 48 988.9
20260506080917 46 338 2.0 3.0 0.04 1.19 0.20 48 988.7
20260506080416 46 315 1.0 3.0 0.04 1.19 0.20 48 988.5
20260506073418 46 315 3.0 6.0 0.03 1.16 0.17 47 989.4
20260506072938 46 315 3.0 6.0 0.03 1.16 0.17 47 989.4
20260506072416 46 293 2.0 3.0 0.03 1.16 0.17 47 989.3
20260506071918 46 270 4.0 8.0 0.04 1.16 0.17 47 989.0
20260506071416 47 338 3.0 5.0 0.04 1.16 0.17 47 988.9
20260506070917 47 293 3.0 7.0 0.04 1.15 0.16 48 988.8
20260506070416 47 338 4.0 8.0 0.04 1.15 0.16 48 988.7
20260506062418 49 0 6.0 8.0 0.05 1.13 0.14 48 988.9
20260506061936 48 0 8.0 10.0 0.04 1.12 0.13 48 988.9
20260506061437 48 0 7.0 9.0 0.04 1.12 0.13 47 989.0
20260506060916 49 0 12.0 13.0 0.04 1.11 0.12 47 988.7
20260506060421 49 0 10.0 11.0 0.04 1.11 0.12 48 988.8
20260506051416 49 293 3.0 5.0 0.08 1.08 0.09 55 989.0
20260506050938 48 270 2.0 3.0 0.07 1.07 0.08 55 989.1
20260506050419 48 270 1.0 2.0 0.08 1.07 0.08 54 989.0
20260506044917 48 203 1.0 2.0 0.07 1.05 0.06 54 989.1
20260506044416 48 0.0 1.0 0.07 1.04 0.05 54 989.1
20260506043917 48 203 2.0 3.0 0.06 1.03 0.04 54 989.2
20260506043416 48 203 1.0 2.0 0.07 1.03 0.04 54 989.1
20260506042936 48 203 1.0 1.0 0.06 1.02 0.03 54 989.1
20260506042437 48 203 1.0 2.0 0.06 1.01 0.02 54 989.2
20260506041919 48 203 2.0 2.0 0.07 1.01 0.02 54 989.1
20260506041417 48 203 2.0 3.0 0.07 1.00 0.01 53 989.2
20260506040919 48 203 2.0 3.0 0.07 1.00 0.01 53 989.2
20260506040437 48 203 3.0 4.0 0.07 0.99 0.00 53 989.1
20260506035919 48 0.0 0.0 0.08 0.99 0.99 53 988.9
20260506035420 48 203 1.0 2.0 0.09 0.99 0.99 53 989.0
20260506034940 48 203 1.0 2.0 0.09 0.98 0.98 53 989.3
20260506034419 49 203 3.0 3.0 0.08 0.97 0.97 53 989.2
20260506033916 49 203 2.0 4.0 0.09 0.97 0.97 53 989.4
20260506033418 49 203 4.0 5.0 0.10 0.96 0.96 53 989.4
20260506032959 49 225 4.0 5.0 0.11 0.96 0.96 53 989.6
20260506032416 49 225 3.0 4.0 0.11 0.95 0.95 53 989.5
20260506031916 49 225 3.0 4.0 0.12 0.94 0.94 53 989.6
20260506031417 49 225 4.0 5.0 0.12 0.93 0.93 53 989.7
20260506030919 49 203 4.0 5.0 0.13 0.93 0.93 53 989.7
20260506030418 49 225 3.0 6.0 0.13 0.92 0.92 53 989.7
20260506025916 49 225 4.0 5.0 0.12 0.91 0.91 53 989.9
20260506025417 49 225 3.0 4.0 0.12 0.90 0.90 53 989.7
20260506024916 49 225 3.0 5.0 0.12 0.89 0.89 53 989.8
20260506024419 49 225 3.0 4.0 0.13 0.89 0.89 53 989.8
20260506023916 49 0.0 1.0 0.12 0.88 0.88 53 989.6
20260506023420 49 225 4.0 5.0 0.11 0.86 0.86 53 989.8
20260506022919 49 293 3.0 4.0 0.10 0.85 0.85 53 989.7
20260506022419 49 293 2.0 3.0 0.09 0.84 0.84 53 989.8
20260506021919 49 293 2.0 3.0 0.07 0.82 0.82 53 989.6
20260506021419 49 293 2.0 3.0 0.07 0.81 0.81 53 989.6
20260506021020 49 293 2.0 3.0 0.06 0.80 0.80 53 989.5
20260506020439 49 293 3.0 4.0 0.05 0.79 0.79 53 989.5
20260506015916 49 293 4.0 4.0 0.06 0.79 0.79 53 989.5
20260506015418 49 293 2.0 4.0 0.05 0.78 0.78 53 989.4
20260506014921 50 293 3.0 3.0 0.05 0.77 0.77 53 989.4
20260506014419 50 293 2.0 3.0 0.04 0.76 0.76 53 989.4
20260506013939 50 293 2.0 3.0 0.04 0.76 0.76 53 989.2
20260506013417 50 0.0 0.0 0.04 0.75 0.75 53 989.2
20260506012916 50 0.0 0.0 0.04 0.75 0.75 53 989.0
20260506012440 50 0.0 0.0 0.04 0.75 0.75 53 988.9
20260506011939 50 0.0 0.0 0.04 0.75 0.75 53 988.9
20260506011419 50 0.0 0.0 0.04 0.74 0.74 53 988.8
20260506010919 50 0.0 0.0 0.04 0.74 0.74 53 988.8
20260506010422 50 0.0 0.0 0.04 0.74 0.74 52 988.8
20260506005921 50 0.0 0.0 0.04 0.73 0.73 53 988.8
20260506005422 50 0.0 0.0 0.05 0.73 0.73 53 988.8
20260506004922 50 0.0 0.0 0.05 0.72 0.72 53 988.8
20260506004421 50 338 1.0 2.0 0.05 0.72 0.72 53 988.9
20260506003921 50 0.0 1.0 0.06 0.72 0.72 52 988.9
20260506003523 50 338 1.0 3.0 0.06 0.71 0.71 52 989.0
20260506003001 50 0.0 0.0 0.06 0.71 0.71 52 989.0
20260506002421 50 0.0 2.0 0.06 0.71 0.71 52 988.9
20260506001921 50 338 2.0 2.0 0.07 0.71 0.71 52 988.9
20260506001421 50 338 1.0 1.0 0.06 0.70 0.70 52 988.9
20260506000941 50 338 1.0 2.0 0.07 0.70 0.70 52 988.9
20260506000423 51 0.0 1.0 0.07 0.70 0.70 51 988.8
20260505235918 51 338 1.0 3.0 0.06 0.69 0.69 51 988.8
20260505235421 51 338 1.0 3.0 0.05 0.68 0.68 51 988.8
20260505234920 51 338 3.0 4.0 0.04 0.67 0.67 52 988.8
20260505234421 51 0 3.0 4.0 0.04 0.67 0.67 51 988.7
20260505233920 51 338 4.0 6.0 0.03 0.66 0.66 51 988.6
20260505233420 51 338 3.0 5.0 0.02 0.65 0.65 51 988.6
20260505232920 51 0 2.0 3.0 0.03 0.65 0.65 51 988.5
20260505232419 51 0 4.0 6.0 0.06 0.65 0.65 51 988.6
20260505231921 52 0 8.0 9.0 0.05 0.64 0.64 51 988.6
20260505231421 52 0 5.0 8.0 0.06 0.64 0.64 51 988.6
20260505230921 52 0 7.0 9.0 0.07 0.63 0.63 51 988.5
20260505230421 52 23 7.0 9.0 0.10 0.63 0.63 51 988.5
20260505225920 51 0 8.0 10.0 0.12 0.63 0.63 51 988.6
20260505225438 52 0 7.0 9.0 0.15 0.63 0.63 51 988.7
20260505224921 51 0 6.0 8.0 0.16 0.63 0.63 51 988.7
20260505224418 52 23 6.0 8.0 0.18 0.63 0.63 51 988.7
20260505223920 52 0 9.0 9.0 0.20 0.63 0.63 51 988.8
20260505223420 52 0 6.0 8.0 0.23 0.63 0.63 51 988.9
20260505222918 52 0 6.0 8.0 0.25 0.62 0.62 51 988.8
20260505222420 51 0.0 1.0 0.23 0.59 0.59 51 989.1
20260505221918 51 0 2.0 4.0 0.24 0.59 0.59 51 989.0
20260505221420 52 338 3.0 4.0 0.23 0.58 0.58 51 988.8
20260505220938 51 338 3.0 5.0 0.22 0.56 0.56 51 988.7
20260505220420 51 338 4.0 5.0 0.20 0.53 0.53 51 988.8
20260505215920 52 315 3.0 4.0 0.18 0.51 0.51 50 988.7
20260505215418 52 338 6.0 9.0 0.16 0.48 0.48 51 988.6
20260505214922 52 338 7.0 10.0 0.15 0.47 0.47 51 988.5
20260505214441 52 0 8.0 11.0 0.14 0.45 0.45 51 988.4
20260505213918 52 0 11.0 12.0 0.13 0.43 0.43 51 988.3
20260505213418 52 0 9.0 11.0 0.10 0.40 0.40 51 988.4
20260505212917 52 315 2.0 3.0 0.08 0.37 0.37 50 988.5
20260505212419 52 338 2.0 5.0 0.08 0.36 0.36 50 988.3
20260505211918 52 338 2.0 3.0 0.07 0.35 0.35 50 988.0
20260505211419 52 338 3.0 5.0 0.08 0.35 0.35 50 988.1
20260505210938 52 315 3.0 4.0 0.08 0.34 0.34 50 988.1
20260505210418 52 315 2.0 4.0 0.08 0.33 0.33 50 988.2
20260505205918 52 338 4.0 6.0 0.09 0.33 0.33 50 988.2
20260505205418 52 270 2.0 4.0 0.10 0.32 0.32 50 988.1
20260505204918 53 338 4.0 6.0 0.12 0.32 0.32 50 988.3
20260505204418 53 293 5.0 10.0 0.13 0.31 0.31 50 988.2
20260505203918 53 293 5.0 6.0 0.13 0.30 0.30 50 988.2
20260505203418 53 293 6.0 9.0 0.14 0.30 0.30 50 988.4
20260505202938 53 270 7.0 9.0 0.14 0.29 0.29 50 988.4
20260505202417 54 293 7.0 10.0 0.13 0.28 0.28 50 988.5
20260505201919 54 270 8.0 11.0 0.14 0.28 0.28 50 988.3
20260505201418 54 293 7.0 9.0 0.13 0.27 0.27 50 988.4
20260505200918 55 293 8.0 11.0 0.13 0.26 0.26 50 988.5
20260505200418 55 270 9.0 12.0 0.14 0.25 0.25 50 988.6
20260505195939 56 270 5.0 8.0 0.14 0.24 0.24 50 988.6
20260505195418 56 270 9.0 12.0 0.13 0.22 0.22 50 988.6
20260505194918 57 270 10.0 13.0 0.12 0.20 0.20 50 988.5
20260505194419 57 270 7.0 8.0 0.11 0.18 0.18 50 988.5
20260505193920 57 270 4.0 6.0 0.11 0.17 0.17 50 988.4
20260505193440 57 270 3.0 3.0 0.11 0.16 0.16 50 988.4
20260505192921 57 270 3.0 4.0 0.11 0.15 0.15 50 988.4
20260505192419 57 270 5.0 6.0 0.12 0.15 0.15 50 988.3
20260505191920 57 270 4.0 6.0 0.12 0.14 0.14 50 988.3
20260505191418 57 248 4.0 4.0 0.12 0.14 0.14 50 988.2
20260505190919 57 248 4.0 4.0 0.12 0.13 0.13 50 988.3
20260505190420 58 248 3.0 3.0 0.10 0.11 0.11 50 988.2
20260505185921 58 248 4.0 7.0 0.10 0.10 0.10 50 988.2
20260505185420 58 270 3.0 3.0 0.09 0.09 0.09 50 988.2
20260505184920 58 270 3.0 4.0 0.08 0.08 0.08 50 988.1
20260505184421 58 270 2.0 3.0 0.07 0.07 0.07 51 988.1
20260505183917 58 270 2.0 3.0 0.06 0.06 0.06 51 988.1
20260505183439 58 270 3.0 4.0 0.05 0.05 0.05 51 988.1
20260505182938 59 270 3.0 4.0 0.04 0.04 0.04 52 988.1
20260505182441 59 270 3.0 4.0 0.03 0.03 0.03 53 988.2
20260505181920 59 270 6.0 7.0 0.02 0.02 0.02 54 988.2
20260505181420 59 270 6.0 8.0 0.02 0.02 0.02 54 988.1
20260505180920 60 270 7.0 9.0 0.01 0.01 0.01 55 988.1
20260505180418 60 270 7.0 9.0 0.01 0.01 0.01 56 988.0
20260505175938 61 270 7.0 9.0 0.00 0.00 0.00 56 988.0
20260505175420 61 248 7.0 8.0 0.00 0.00 0.00 56 988.0
20260505174919 61 248 7.0 8.0 0.00 0.00 0.00 56 988.0
20260505174420 61 248 8.0 9.0 0.00 0.00 0.00 55 987.9
20260505173920 61 248 8.0 9.0 0.00 0.00 0.00 55 988.0